This is the latest recevied weather packets stored in our database for station/object HB9EFX-14. If no packets are shown the sender has not sent any weather packets the latest 1 day(s).
| Time | Temp. | Humidity | Pressure | Rain* | Wind** | Luminosity | Snow |
|---|---|---|---|---|---|---|---|
| 1778003758 | 11.67° C | - | - | 0 mm | 2.24 m/s, 129° | - | - |
| 1778003158 | 11.67° C | - | - | 0 mm | 1.34 m/s, 134° | - | - |
| 1777980930 | 15° C | - | - | 0 mm | 0.89 m/s, 67° | - | - |
| 1777980330 | 13.89° C | - | - | 0 mm | 0.89 m/s, 341° | - | - |
| 1777979729 | 13.33° C | - | - | 0 mm | 1.79 m/s, 346° | - | - |
| 1777979130 | 13.33° C | - | - | 0 mm | 0.89 m/s, 352° | - | - |
| 1777978529 | 13.89° C | - | - | 0 mm | 1.79 m/s, 37° | - | - |
| 1777977927 | 13.89° C | - | - | 0 mm | 1.34 m/s, 37° | - | - |
| 1777977326 | 13.33° C | - | - | 0 mm | 0.89 m/s, 9° | - | - |
| 1777976726 | 13.33° C | - | - | 0 mm | 1.34 m/s, 95° | - | - |
| 1777976126 | 12.78° C | - | - | 0 mm | 1.34 m/s, 98° | - | - |
| 1777975526 | 12.22° C | - | - | 0 mm | 0.89 m/s, 85° | - | - |
| 1777974923 | 12.22° C | - | - | 0 mm | 0.45 m/s, 227° | - | - |
| 1777974322 | 12.22° C | - | - | 0 mm | 1.34 m/s, 82° | - | - |
| 1777973723 | 11.67° C | - | - | 0 mm | 0.45 m/s, 25° | - | - |
| 1777973122 | 12.22° C | - | - | 0 mm | 1.34 m/s, 59° | - | - |
| 1777972522 | 11.67° C | - | - | 0 mm | 0 m/s | - | - |
| 1777971919 | 11.67° C | - | - | 0 mm | 0.89 m/s, 18° | - | - |
| 1777971318 | 12.22° C | - | - | 0 mm | 0.45 m/s, 66° | - | - |
| 1777970718 | 11.67° C | - | - | 0 mm | 0 m/s | - | - |
| 1777970119 | 11.67° C | - | - | 0 mm | 1.34 m/s, 105° | - | - |
| 1777969519 | 11.67° C | - | - | 0 mm | 1.79 m/s, 105° | - | - |
| 1777968915 | 11.67° C | - | - | 0 mm | 1.79 m/s, 107° | - | - |
| 1777968316 | 11.67° C | - | - | 0 mm | 0.89 m/s, 53° | - | - |
| 1777967715 | 11.11° C | - | - | 0 mm | 0.45 m/s, 45° | - | - |
* Rain latest hour (hover to see other rain measurements)
** Current wind speed in m/s (hover to see current wind gust speed)